TimeCDT,TemperatureF,Dew PointF,Humidity,Sea Level PressureIn,VisibilityMPH,Wind Direction,Wind SpeedMPH,Gust SpeedMPH,PrecipitationIn,Events,Conditions,WindDirDegrees,DateUTC
12:15 AM,24.8,23.0,93,30.61,10.0,South,3.5,-,N/A,,Clear,190,2013-05-02 05:15:00
12:35 AM,24.8,24.8,100,30.61,10.0,SSW,5.8,-,N/A,,Clear,200,2013-05-02 05:35:00
12:55 AM,23.0,23.0,100,30.61,10.0,SSW,4.6,-,N/A,,Clear,200,2013-05-02 05:55:00
1:15 AM,23.0,23.0,100,30.61,10.0,SSW,4.6,-,N/A,,Clear,210,2013-05-02 06:15:00
1:35 AM,23.0,23.0,100,30.61,10.0,SSW,4.6,-,N/A,,Clear,210,2013-05-02 06:35:00
1:55 AM,23.0,23.0,100,30.61,10.0,SW,8.1,-,N/A,,Clear,220,2013-05-02 06:55:00
2:15 AM,23.0,21.2,93,30.61,10.0,SSW,6.9,-,N/A,,Clear,210,2013-05-02 07:15:00
2:35 AM,23.0,21.2,93,30.61,10.0,SSW,6.9,-,N/A,,Clear,210,2013-05-02 07:35:00
2:55 AM,23.0,19.4,86,30.61,10.0,South,5.8,-,N/A,,Clear,190,2013-05-02 07:55:00
3:15 AM,21.2,19.4,93,30.61,10.0,SSW,8.1,-,N/A,,Clear,200,2013-05-02 08:15:00
3:35 AM,23.0,21.2,93,30.61,10.0,SSW,9.2,-,N/A,,Clear,210,2013-05-02 08:35:00
3:55 AM,23.0,19.4,86,30.61,10.0,SSW,5.8,-,N/A,,Clear,210,2013-05-02 08:55:00
4:15 AM,23.0,19.4,86,30.61,10.0,SSW,5.8,-,N/A,,Clear,200,2013-05-02 09:15:00
4:35 AM,23.0,19.4,86,30.61,10.0,SSW,5.8,-,N/A,,Clear,210,2013-05-02 09:35:00
4:55 AM,23.0,19.4,86,30.61,10.0,SSW,6.9,-,N/A,,Clear,210,2013-05-02 09:55:00
5:15 AM,23.0,19.4,86,30.61,10.0,SSW,5.8,-,N/A,,Clear,210,2013-05-02 10:15:00
5:35 AM,23.0,21.2,93,30.62,10.0,SSW,6.9,-,N/A,,Mostly Cloudy,200,2013-05-02 10:35:00
5:55 AM,23.0,21.2,93,30.62,10.0,SSW,6.9,-,N/A,,Partly Cloudy,200,2013-05-02 10:55:00
6:15 AM,23.0,19.4,86,30.62,10.0,South,4.6,-,N/A,,Partly Cloudy,190,2013-05-02 11:15:00
6:35 AM,24.8,21.2,86,30.62,10.0,SSW,8.1,-,N/A,,Mostly Cloudy,200,2013-05-02 11:35:00
6:55 AM,24.8,23.0,93,30.63,10.0,South,5.8,-,N/A,,Scattered Clouds,190,2013-05-02 11:55:00
7:15 AM,24.8,23.0,93,30.63,10.0,SSW,5.8,-,N/A,,Partly Cloudy,200,2013-05-02 12:15:00
7:35 AM,26.6,24.8,93,30.62,10.0,South,8.1,-,N/A,,Clear,190,2013-05-02 12:35:00
7:55 AM,28.4,24.8,86,30.62,10.0,South,8.1,-,N/A,,Clear,190,2013-05-02 12:55:00
8:15 AM,28.4,24.8,86,30.62,10.0,SSW,9.2,-,N/A,,Clear,200,2013-05-02 13:15:00
8:35 AM,32.0,24.8,75,30.62,10.0,South,9.2,-,N/A,,Clear,190,2013-05-02 13:35:00
8:55 AM,32.0,26.6,80,30.63,10.0,South,6.9,-,N/A,,Clear,170,2013-05-02 13:55:00
9:15 AM,35.6,26.6,70,30.62,10.0,South,8.1,-,N/A,,Clear,170,2013-05-02 14:15:00
9:35 AM,37.4,24.8,60,30.62,10.0,SSE,9.2,-,N/A,,Clear,160,2013-05-02 14:35:00
9:55 AM,39.2,24.8,56,30.61,10.0,SSE,10.4,-,N/A,,Clear,160,2013-05-02 14:55:00
10:15 AM,41.0,23.0,49,30.61,10.0,SSE,9.2,-,N/A,,Clear,160,2013-05-02 15:15:00
10:35 AM,41.0,23.0,49,30.61,10.0,South,8.1,-,N/A,,Clear,170,2013-05-02 15:35:00
10:55 AM,42.8,23.0,46,30.60,10.0,South,8.1,-,N/A,,Clear,170,2013-05-02 15:55:00
11:15 AM,44.6,21.2,39,30.60,10.0,South,10.4,-,N/A,,Clear,170,2013-05-02 16:15:00
11:35 AM,44.6,21.2,39,30.59,10.0,South,6.9,24.2,N/A,,Clear,180,2013-05-02 16:35:00
11:55 AM,46.4,19.4,34,30.58,10.0,South,10.4,-,N/A,,Clear,180,2013-05-02 16:55:00
12:15 PM,46.4,19.4,34,30.57,10.0,South,10.4,-,N/A,,Clear,180,2013-05-02 17:15:00
12:35 PM,48.2,21.2,34,30.57,10.0,South,6.9,-,N/A,,Clear,190,2013-05-02 17:35:00
12:55 PM,48.2,21.2,34,30.56,10.0,WSW,6.9,-,N/A,,Clear,240,2013-05-02 17:55:00
1:15 PM,48.2,21.2,34,30.55,10.0,ESE,4.6,-,N/A,,Partly Cloudy,120,2013-05-02 18:15:00
1:35 PM,48.2,21.2,34,30.54,10.0,South,6.9,-,N/A,,Partly Cloudy,170,2013-05-02 18:35:00
1:55 PM,50.0,19.4,30,30.52,10.0,SSW,11.5,-,N/A,,Scattered Clouds,200,2013-05-02 18:55:00
2:15 PM,50.0,19.4,30,30.51,10.0,SSW,6.9,17.3,N/A,,Scattered Clouds,200,2013-05-02 19:15:00
2:35 PM,50.0,19.4,30,30.50,10.0,SSW,10.4,-,N/A,,Mostly Cloudy,200,2013-05-02 19:35:00
2:55 PM,50.0,17.6,28,30.49,10.0,South,4.6,-,N/A,,Partly Cloudy,180,2013-05-02 19:55:00
3:15 PM,51.8,17.6,26,30.48,10.0,WSW,6.9,-,N/A,,Clear,250,2013-05-02 20:15:00
3:35 PM,50.0,17.6,28,30.48,10.0,SE,4.6,-,N/A,,Clear,140,2013-05-02 20:35:00
3:55 PM,53.6,19.4,26,30.46,10.0,South,10.4,-,N/A,,Clear,180,2013-05-02 20:55:00
4:15 PM,51.8,17.6,26,30.46,10.0,South,5.8,-,N/A,,Clear,180,2013-05-02 21:15:00
4:35 PM,53.6,17.6,24,30.44,10.0,South,5.8,-,N/A,,Clear,180,2013-05-02 21:35:00
4:55 PM,53.6,17.6,24,30.44,10.0,West,4.6,-,N/A,,Clear,270,2013-05-02 21:55:00
5:15 PM,53.6,17.6,24,30.43,10.0,WSW,10.4,-,N/A,,Clear,240,2013-05-02 22:15:00
5:35 PM,53.6,17.6,24,30.43,10.0,SSW,4.6,-,N/A,,Clear,200,2013-05-02 22:35:00
5:55 PM,55.4,15.8,21,30.42,10.0,Calm,Calm,-,N/A,,Clear,0,2013-05-02 22:55:00
6:15 PM,55.4,15.8,21,30.41,10.0,SSW,5.8,-,N/A,,Clear,210,2013-05-02 23:15:00
6:35 PM,55.4,15.8,21,30.41,10.0,South,8.1,-,N/A,,Clear,190,2013-05-02 23:35:00
6:55 PM,53.6,15.8,22,30.40,10.0,South,4.6,-,N/A,,Clear,190,2013-05-02 23:55:00
7:15 PM,53.6,15.8,22,30.40,10.0,SSE,4.6,-,N/A,,Clear,160,2013-05-03 00:15:00
7:35 PM,53.6,15.8,22,30.39,10.0,South,6.9,-,N/A,,Clear,180,2013-05-03 00:35:00
7:55 PM,53.6,17.6,24,30.39,10.0,SSE,6.9,-,N/A,,Clear,150,2013-05-03 00:55:00
8:15 PM,51.8,19.4,28,30.39,10.0,SE,6.9,-,N/A,,Clear,140,2013-05-03 01:15:00
8:35 PM,48.2,21.2,34,30.38,10.0,SE,8.1,-,N/A,,Clear,130,2013-05-03 01:35:00
8:55 PM,46.4,24.8,43,30.38,10.0,SE,8.1,-,N/A,,Clear,130,2013-05-03 01:55:00
9:15 PM,42.8,26.6,53,30.38,10.0,SE,9.2,-,N/A,,Clear,130,2013-05-03 02:15:00
9:35 PM,39.2,26.6,61,30.38,10.0,SE,8.1,-,N/A,,Clear,130,2013-05-03 02:35:00
9:55 PM,37.4,26.6,65,30.38,10.0,SE,8.1,-,N/A,,Clear,130,2013-05-03 02:55:00
10:15 PM,41.0,26.6,57,30.38,10.0,SE,16.1,20.7,N/A,,Clear,140,2013-05-03 03:15:00
10:35 PM,41.0,24.8,53,30.38,10.0,SSE,17.3,23.0,N/A,,Clear,150,2013-05-03 03:35:00
10:55 PM,41.0,24.8,53,30.38,10.0,SSE,15.0,21.9,N/A,,Clear,150,2013-05-03 03:55:00
11:15 PM,41.0,24.8,53,30.38,10.0,SSE,17.3,23.0,N/A,,Clear,150,2013-05-03 04:15:00
11:35 PM,39.2,24.8,56,30.37,10.0,SSE,16.1,23.0,N/A,,Clear,160,2013-05-03 04:35:00
11:55 PM,39.2,24.8,56,30.37,10.0,SSE,18.4,25.3,N/A,,Clear,160,2013-05-03 04:55:00